Hourly Data Report for December 29, 2006

TORONTO CITY
ONTARIO

43°40'00.000" N
79°24'00.000" W
112.50 m
6158355
71508
XTO

Download Data

Hourly Data (December 2006)
Hourly Data Report for December 29, 2006
TIME
LST
Temp Definition
°C
Dew Point Definition
°C
Rel Hum Definition
%
Precip. Amount Definition
mm

Wind Dir Definition
10's deg

Wind Spd Definition
km/h
Visibility Definition
km
Stn Press Definition
kPa
Hmdx Definition


Wind Chill Definition


Weather Definition


00:00 1.2 0.3 94   LegendMM LegendMM   101.98     LegendNANA
01:00 1.0 0.0 93   LegendMM LegendMM   102.03     LegendNANA
02:00 0.9 0.2 95   LegendMM LegendMM   102.09     LegendNANA
03:00 0.1 -0.6 95   LegendMM LegendMM   102.19     LegendNANA
04:00 -0.5 -1.9 90   LegendMM LegendMM   102.21     LegendNANA
05:00 -0.9 -2.8 87   LegendMM LegendMM   102.28     LegendNANA
06:00 -1.3 -3.5 85   LegendMM LegendMM   102.35     LegendNANA
07:00 -1.6 -3.9 84   LegendMM LegendMM   102.41     LegendNANA
08:00 -2.0 -4.5 83   LegendMM LegendMM   102.49     LegendNANA
09:00 -2.4 -5.3 80   LegendMM LegendMM   102.55     LegendNANA
10:00 -2.7 -6.1 77   LegendMM LegendMM   102.65     LegendNANA
11:00 -3.0 -6.9 74   LegendMM LegendMM   102.67     LegendNANA
12:00 -2.6 -5.7 79   LegendMM LegendMM   102.59     LegendNANA
13:00 -2.7 -5.3 82   LegendMM LegendMM   102.56     LegendNANA
14:00 -2.2 -4.7 83   LegendMM LegendMM   102.46     LegendNANA
15:00 -2.1 -4.7 82   LegendMM LegendMM   102.50     LegendNANA
16:00 -2.0 -4.8 81   LegendMM LegendMM   102.42     LegendNANA
17:00 -1.9 -4.8 81   LegendMM LegendMM   102.39     LegendNANA
18:00 -1.5 -4.6 79   LegendMM LegendMM   102.38     LegendNANA
19:00 -1.2 -4.6 78   LegendMM LegendMM   102.38     LegendNANA
20:00 -1.1 -4.5 78   LegendMM LegendMM   102.29     LegendNANA
21:00 -1.1 -4.5 78   LegendMM LegendMM   102.24     LegendNANA
22:00 -1.2 -4.4 79   LegendMM LegendMM   102.14     LegendNANA
23:00 -1.1 -3.8 82   LegendMM LegendMM   102.07     LegendNANA

Notes on Data Quality.

Legend

  • E = Estimated
  • M = Missing
  • NA = Not Available*
  • [empty] = Indicates an unobserved value
Date modified: